sat.trackr.live / text

‹ back to catalog

STARLINK-34337

NORAD 64223 · 2025-117W

PAYLOAD ACTIVE UNKNOWN

§ Identity

Operator
Country
US
Launch date
2025-05-31
Launch site
AFWTR
Launch vehicle
Mass (kg)
RCS (m²)

Purposes: comms

External: N2YO · Heavens-Above · Gunter

§ Orbital elements

Epoch: 2026-05-24T23:28:49.757952Z

Period
94.11 min
Inclination
53.1617°
Eccentricity
0.0001220
Mean motion
15.30201056 rev/d
Perigee alt
474.4 km
Apogee alt
476.0 km
Semi-major
6,853.3 km
B*
3.4027e-4
RAAN
45.4029°
Arg perigee
91.3859°
Mean anomaly
268.7281°
Rev number
5,620

§ Raw data

STARLINK-343371 64223U 25117W   26144.97835368  .00009732  00000+0  34027-3 0  99982 64223  53.1617  45.4029 0001220  91.3859 268.7281 15.30201056 56206

JSON: /api/v1/satellites/64223 · /tle

For live sub-satellite position, see the globe view (requires WebGL).

§ Visibility from observer

Set your observer location to see the next 7 days of passes ≥ 10°. The values pass through the URL so the page stays shareable.

No JS? Fill the form by hand. The geolocation button needs JavaScript.